Location: Stull Observatory
(42.2506°N, 77.7903°W)
Time: 17:04:26
(UTC-04:00)

Daily predictions for brighter satellites

Satellite Brightness Start Highest point End
(mag) Time Altitude Azimuth Time Altitude Azimuth Time Altitude Azimuth
Cosmos 1461 4.5 20:22:56 10° N 20:26:05 21° NE 20:29:09 10° E
Cosmos 1602 4.3 20:27:28 10° SSW 20:31:24 67° W 20:35:22 10° N
Cosmos 2219 3.5 20:29:19 10° NNW 20:34:55 72° WSW 20:40:30 10° SSE
Cosmos 1777 Rocket 4.1 20:30:20 10° NNW 20:35:33 62° ENE 20:40:46 10° SSE
Lacrosse 5 rocket 2.9 20:35:29 10° NNW 20:38:22 20° NNE 20:41:10 10° ENE
OE (NEXTSAT) 4.5 20:34:56 10° WNW 20:38:30 74° SSW 20:41:53 11° ESE
Cosmos 1544 Rocket 3.7 20:34:32 10° S 20:38:47 53° E 20:43:05 10° NNE
Cosmos 1315 Rocket 3.1 20:36:08 10° SSW 20:40:07 72° W 20:44:11 10° N
Cosmos 2208 Rocket 4.4 20:38:05 10° S 20:43:02 41° ESE 20:48:03 10° NNE
Meteor 2-4 Rocket 3.9 20:38:48 10° N 20:44:39 90° W 20:50:34 10° S
USA 215 4.5 20:40:38 10° ENE 20:46:14 32° NNE 20:51:50 10° NW
CZ-3C R/B 4.4 19:46:13 10° WSW 20:47:04 34° SSW 20:56:41 10° SE
Cosmos 1656 Rocket 4.4 20:41:37 10° SW 20:47:08 59° WNW 20:52:37 10° NNE
Cosmos 1821 Rocket 3.9 20:42:28 10° S 20:48:35 81° E 20:54:41 10° N
ATLAS CENTAUR R/B 3.2 20:44:32 10° WSW 20:49:20 43° NW 20:54:04 10° NNE
Cosmos 1605 Rocket 4.2 20:45:20 10° SSE 20:51:25 50° E 20:57:27 10° NNE
Cosmos 2278 4.0 20:48:05 10° S 20:53:24 44° ESE 20:58:46 10° NE
ALOS 2.7 20:50:38 10° S 20:55:17 67° W 20:59:57 10° NNW
Cosmos 1939 Rocket 3.8 20:53:26 13° SE 20:56:30 32° ENE 21:00:13 10° N
Cosmos 1697 Rocket 4.1 20:54:01 12° SE 20:56:40 17° E 21:00:07 10° ENE
Meteor 1-23 Rocket 4.5 20:53:26 10° NNW 20:59:03 74° W 21:04:43 10° S
NOSS 3-4 (A) 3.9 20:52:29 10° NNW 20:59:30 75° NE 21:06:10 13° SE
Lacrosse 5 3.6 20:55:33 10° NNW 20:59:31 22° NNE 21:03:28 10° ENE
NOSS 3-4 (C) 3.9 20:52:36 10° NNW 20:59:37 74° NE 21:06:14 14° SE
H-2A R/B 3.2 20:57:38 10° S 21:01:26 63° W 21:05:21 10° NNW
Cosmos 1570 Rocket 4.0 20:57:37 10° S 21:02:52 68° ESE 21:08:08 10° NNE
Meteor 2-16 Rocket 4.4 20:58:16 10° S 21:04:21 86° E 21:10:28 10° N
Cosmos 2369 3.9 21:00:27 10° S 21:05:52 49° ESE 21:11:21 10° NE
SPOT 5 4.0 21:03:41 16° ESE 21:06:39 28° ENE 21:10:48 10° N
YAOGAN 11 4.2 21:02:34 10° SSE 21:06:59 62° ENE 21:11:25 10° N
Envisat 3.3 21:08:01 16° SE 21:11:54 48° ENE 21:16:46 10° N
DELTA 2 R/B (1) 3.6 21:09:03 10° W 21:14:35 68° S 21:18:26 20° ESE
Cosmos 1980 Rocket 3.9 21:19:03 14° E 21:19:03 14° E 21:20:58 10° ENE
Cosmos 2123 Rocket 4.0 21:12:38 10° N 21:18:51 83° W 21:25:01 10° S
Hubble Space Telescope 3.1 21:19:47 10° SSW 21:20:50 11° S 21:21:37 10° S
RESURS DK-1 4.2 21:20:31 10° N 21:23:17 17° NE 21:24:26 15° ENE
Cosmos 1346 Rocket 3.3 21:19:57 10° NNW 21:23:49 60° W 21:27:43 10° S
ARGOS 4.3 21:26:41 21° E 21:28:35 26° ENE 21:32:57 10° N
CZ-4 DEB 3.3 21:30:12 19° S 21:32:13 56° W 21:35:20 10° NNW
deb Chang Zheng 4 3.8 21:29:00 10° NNE 21:33:21 49° E 21:35:52 23° SSE
H-2A R/B 2.1 21:32:15 32° SE 21:33:51 54° ENE 21:37:53 10° N
Iridium 4 Rocket 3.4 21:32:59 10° N 21:38:18 89° W 21:42:11 16° S
Cosmos 1626 Rocket 3.5 21:33:58 10° N 21:38:25 85° W 21:41:12 22° S
ASTEX 1 4.1 21:34:39 10° NNE 21:39:14 35° E 21:40:10 32° ESE
Cosmos 1459 Rocket 4.2 21:36:29 23° SSE 21:40:01 47° E 21:45:49 10° NNE
Cosmos 2227 Rocket 2.4 21:37:11 10° NNW 21:42:51 72° WSW 21:46:31 22° S
Cosmos 1455 Rocket 4.4 21:39:01 10° SSW 21:43:04 39° WNW 21:47:10 10° N
SL-24 R/B - RUBIN 2 4.5 21:38:13 10° S 21:43:47 51° ESE 21:50:00 10° NE
Tiangong 1 0.9 21:41:51 10° W 21:44:56 85° N 21:45:06 78° ENE
Cosmos 1153 Rocket 4.4 21:39:16 10° S 21:45:29 90° E 21:51:41 10° N
NOSS 7 (H) 4.1 21:42:22 10° SSW 21:45:35 83° ESE 21:49:01 10° NE
Cosmos 1602 Rocket 3.8 21:41:26 10° NNW 21:45:54 71° W 21:48:43 22° S
Cosmos 1898 Rocket 3.6 21:43:14 10° NNW 21:48:31 60° ENE 21:50:22 38° SE
PSLV R/B 4.4 21:49:47 30° NE 21:49:47 30° NE 21:51:50 10° N
Nimbus 7 Rocket 4.4 21:44:43 10° NNE 21:50:48 71° ESE 21:56:50 10° S
Cosmos 1500 3.0 21:50:01 46° S 21:51:03 79° E 21:54:50 10° N
ERS-1 Rocket 3.5 21:47:20 15° S 21:51:27 55° W 21:56:24 10° NNW
MetOp-B 4.2 21:49:40 35° SE 21:51:50 63° ENE 21:57:07 10° N
Cosmos 2082 4.0 21:49:05 10° NNW 21:54:38 61° WSW 21:57:53 25° S
Terra 3.5 21:56:54 18° ENE 21:56:56 18° ENE 22:00:05 10° NNE
Cosmos 1802 Rocket 4.1 21:54:07 29° SSE 21:57:18 57° E 22:03:34 10° NNE
OAO 2 Rocket 4.3 21:54:22 10° SW 21:58:17 30° S 21:58:17 30° S
Cosmos 2297 Rocket 2.3 21:53:16 10° NNW 21:58:54 74° WSW 22:01:34 33° S
OTV 4 2.6 21:58:12 10° WSW 21:59:29 20° SW 21:59:29 20° SW
Cosmos 1656 3.5 21:55:59 10° SSW 22:01:36 80° ESE 22:07:12 10° NNE
SL-08 RB Rocket 4.4 22:02:59 38° ENE 22:03:14 38° ENE 22:07:32 10° N
Cosmos 1975 3.9 21:59:40 10° SSW 22:03:36 45° WNW 22:07:34 10° N
Cosmos 2058 Rocket 4.5 22:06:48 25° ENE 22:06:48 25° ENE 22:09:23 10° NNE
Cosmos 1461 3.6 22:01:37 10° NW 22:05:28 42° WSW 22:06:17 37° SSW
Cosmos 1340 3.4 22:05:06 10° N 22:08:04 41° NE 22:08:04 41° NE
Cosmos 468 Rocket 3.8 22:09:55 31° SSW 22:12:27 81° ESE 22:17:36 10° NNE
Lacrosse 5 rocket 1.6 22:14:15 10° NW 22:17:24 54° W 22:17:24 54° W
Cosmos 1814 Rocket 3.9 22:16:31 43° S 22:18:19 77° ESE 22:23:39 10° NNE
Cosmos 1743 2.9 22:19:32 70° N 22:19:32 70° N 22:23:02 10° N
Cosmos 2016 Rocket 3.8 22:19:13 45° SSE 22:21:08 72° E 22:27:17 10° NNE
Cosmos 1606 Rocket 3.7 22:21:42 62° NE 22:21:42 62° NE 22:25:35 10° NNE
Cosmos 841 Rocket 4.5 22:24:02 33° ENE 22:24:02 33° ENE 22:27:20 10° NNE
Cosmos 2084 3.4 22:20:43 10° NW 22:24:26 74° NNW 22:24:26 74° NNW
USA 215 3.3 22:26:31 46° ESE 22:28:36 73° NE 22:35:08 10° NW
Cosmos 1842 4.5 22:29:29 10° N 22:31:58 35° NNE 22:31:58 35° NNE
BREEZE-M DEB (TANK) 4.4 22:29:00 10° WNW 22:33:23 79° NNE 22:38:25 35° ESE
Cosmos 2173 Rocket 4.3 22:30:10 22° SSW 22:34:25 67° W 22:40:45 10° N
YAOGAN 6 3.7 22:34:50 41° W 22:34:50 41° W 22:37:58 10° NNW
Milstar 3 Cent rocket 4.2 22:20:14 10° WSW 22:35:43 39° SSW 22:38:08 35° S
Cosmos 2061 Rocket 4.3 22:32:02 22° SSW 22:36:11 66° W 22:42:27 10° N
Cosmos 1697 Rocket 2.9 22:35:31 17° SW 22:39:59 69° WNW 22:45:38 10° NNE
GEOS 3 Rocket 3.4 22:35:01 10° NE 22:40:10 90° NW 22:41:24 54° SW
H-2A R/B 2.3 22:41:13 53° NE 22:41:13 53° NE 22:45:35 10° N
Meteor 1-15 Rocket 4.4 22:41:03 58° E 22:41:03 58° E 22:46:31 10° NNE
SL-16 R/B 4.1 22:44:19 16° NE 22:44:19 16° NE 22:45:40 10° NE
Lacrosse 5 1.9 22:38:08 10° NW 22:43:01 74° NNE 22:43:01 74° NNE
Tsikada Rocket 3.9 22:37:35 10° N 22:44:02 71° E 22:44:43 66° ESE
SPOT 5 4.2 22:42:57 29° SW 22:44:33 36° W 22:49:08 10° NNW
Cosmos 2098 Rocket 4.1 22:42:50 53° S 22:44:40 82° E 22:50:57 10° N
NOAA 11 4.2 22:44:16 63° SSW 22:45:00 72° WSW 22:50:30 10° NNW
Cosmos 1726 Rocket 4.1 22:47:06 56° NNW 22:47:06 56° NNW 22:50:41 10° N
Cosmos 1864 Rocket 4.3 22:47:50 73° SE 22:48:15 77° E 22:54:23 10° N
Cosmos 967 Rocket 4.3 22:48:27 10° NNW 22:54:51 79° ENE 22:55:14 76° E
Cosmos 1937 Rocket 4.2 22:53:09 10° NNW 22:58:10 46° WSW 22:58:26 46° WSW
SPOT 1/Viking Rocket 4.2 22:58:58 46° WSW 22:59:25 47° W 23:04:29 10° NNW
DELTA 2 R/B (1) 4.5 22:55:26 10° W 22:59:13 37° WSW 22:59:13 37° WSW
Cosmos 1980 Rocket 2.2 23:00:43 72° WSW 23:01:07 76° WNW 23:06:51 10° NNE
RESURS DK-1 3.8 22:57:37 10° NW 23:00:21 35° WNW 23:00:21 35° WNW
ARGOS 3.9 23:08:12 43° WSW 23:08:33 44° W 23:13:42 10° NNW
Cosmos 1816 Rocket 4.4 23:08:57 10° N 23:15:21 85° W 23:15:22 85° W
Cosmos 1725 Rocket 4.2 23:17:03 58° WSW 23:17:50 62° W 23:24:02 10° N
Cosmos 2322 Rocket 3.4 23:33:40 34° NNE 23:33:40 34° NNE 23:36:47 10° NNE
Cosmos 2263 Rocket 3.1 23:26:58 10° NNW 23:31:08 41° NNE 23:31:08 41° NNE
Terra 3.1 23:35:48 37° NW 23:35:48 37° NW 23:38:55 10° NNW
Cosmos 1125 Rocket 4.4 23:31:37 10° NNW 23:35:17 45° NW 23:35:17 45° NW
Cosmos 2233 Rocket 4.4 23:48:31 57° WNW 23:48:31 57° WNW 23:54:16 10° N
